Location: LDNL
(36.4545°S, 141.6685°E)
Time: 12:31:21
(UTC+10:00)

Vanguard 3 - Pass Details

Date: 02 February 2022
Orbit: 508 x 3258 km, 33.3° (Epoch: 25 May)

Event Time Altitude Azimuth Distance (km) Brightness Sun altitude
Rises 05:15:34 0° 260° (W) 5,096 - -17.4°
Exits shadow 05:16:54 - 263° (W) 4,789 10.7 -17.2°
Reaches altitude 10° 05:18:36 10° 266° (W) 4,424 10.5 -16.9°
Maximum altitude 05:30:56 47° 334° (NNW) 3,357 9.8 -14.9°
Drops below altitude 10° 05:48:40 10° 39° (NE) 6,177 11.7 -11.9°
Sets 05:53:54 0° 44° (NE) 7,206 12.2 -11.0°
